TimeCST,TemperatureF,Dew PointF,Humidity,Sea Level PressureIn,VisibilityMPH,Wind Direction,Wind SpeedMPH,Gust SpeedMPH,PrecipitationIn,Events,Conditions,WindDirDegrees,DateUTC
12:53 AM,28.0,21.9,78,29.79,10.0,Calm,Calm,-,N/A,,Overcast,0,2012-12-16 06:53:00
1:53 AM,27.0,21.9,81,29.79,10.0,NW,4.6,-,N/A,,Overcast,310,2012-12-16 07:53:00
2:53 AM,28.0,21.9,78,29.80,10.0,NNW,3.5,-,N/A,,Overcast,330,2012-12-16 08:53:00
3:53 AM,28.0,21.9,78,29.79,10.0,Calm,Calm,-,N/A,,Overcast,0,2012-12-16 09:53:00
4:53 AM,25.0,21.0,85,29.79,10.0,WSW,3.5,-,N/A,,Mostly Cloudy,250,2012-12-16 10:53:00
5:53 AM,26.1,21.9,84,29.80,10.0,NW,5.8,-,N/A,,Overcast,320,2012-12-16 11:53:00
6:53 AM,25.0,21.0,85,29.81,10.0,Calm,Calm,-,N/A,,Overcast,0,2012-12-16 12:53:00
7:53 AM,19.9,16.0,85,29.82,10.0,Calm,Calm,-,N/A,,Partly Cloudy,0,2012-12-16 13:53:00
8:53 AM,21.9,19.0,89,29.83,10.0,Calm,Calm,-,N/A,,Clear,0,2012-12-16 14:53:00
9:53 AM,30.0,23.0,75,29.83,10.0,Calm,Calm,-,N/A,,Clear,0,2012-12-16 15:53:00
10:53 AM,34.0,21.9,61,29.82,10.0,West,3.5,-,N/A,,Clear,270,2012-12-16 16:53:00
11:53 AM,37.0,19.0,48,29.80,10.0,SW,4.6,-,N/A,,Clear,230,2012-12-16 17:53:00
12:53 PM,41.0,26.1,55,29.76,10.0,West,9.2,-,N/A,,Clear,280,2012-12-16 18:53:00
1:53 PM,43.0,30.0,60,29.75,10.0,WNW,9.2,-,N/A,,Scattered Clouds,290,2012-12-16 19:53:00
2:53 PM,44.1,30.0,58,29.72,10.0,West,6.9,-,N/A,,Clear,280,2012-12-16 20:53:00
3:53 PM,45.0,28.9,53,29.71,10.0,West,5.8,-,N/A,,Clear,260,2012-12-16 21:53:00
4:53 PM,39.9,28.9,65,29.74,10.0,SSW,10.4,-,N/A,,Clear,210,2012-12-16 22:53:00
5:53 PM,35.1,30.0,82,29.76,10.0,SSW,6.9,-,N/A,,Clear,210,2012-12-16 23:53:00
6:53 PM,35.1,30.0,82,29.79,10.0,SW,5.8,-,N/A,,Mostly Cloudy,230,2012-12-17 00:53:00
7:53 PM,28.9,26.1,89,29.82,10.0,Calm,Calm,-,N/A,,Scattered Clouds,0,2012-12-17 01:53:00
8:53 PM,28.9,26.1,89,29.82,10.0,WNW,5.8,-,N/A,,Partly Cloudy,290,2012-12-17 02:53:00
9:53 PM,26.1,24.1,92,29.81,7.0,NW,3.5,-,N/A,,Clear,320,2012-12-17 03:53:00
10:53 PM,19.9,19.0,96,29.83,7.0,NW,5.8,-,N/A,,Clear,310,2012-12-17 04:53:00
11:53 PM,19.9,18.0,92,29.82,6.0,NW,5.8,-,N/A,,Clear,310,2012-12-17 05:53:00